{"data":{"norad_id":69118,"intl_designator":"2026-108Q","name":"QIANFAN-159","alt_names":[],"object_type":"PAYLOAD","status":"ACTIVE","operator":null,"country":"PRC","launch_date":"2026-05-17","launch_site_code":"WSC","launch_vehicle":null,"mission":null,"orbit_class":"UNKNOWN","rcs_meters":null,"size_class":null,"mass_kg":null,"dimensions":null,"purposes":[],"wikipedia_slug":null,"has_3d_model":false,"image_url":null,"decayed_at":null,"tle_current":{"epoch":"2026-09-20T03:06:00.134208Z","epoch_age_seconds":55238,"freshness":"FRESH","line1":"1 69118U 26108Q   26263.12916822  .00000114  00000+0  15765-3 0  9994","line2":"2 69118  89.0183  12.5173 0001895 104.2232 255.9130 13.51023804 17282","mean_motion":13.51023804,"eccentricity":0.0001895,"inclination_deg":89.0183,"raan_deg":12.5173,"arg_perigee_deg":104.2232,"mean_anomaly_deg":255.913,"bstar":0.00015765,"rev_number":1728,"period_min":106.58583481183,"perigee_km":1067.0829780906,"apogee_km":1069.905251283,"semimajor_km":7446.6311146868,"source":"CELESTRAK","updated_at":"2026-09-20T09:00:24.682947Z"}}}